Location: Lowman
(44.0835°N, 115.6207°W)
Time: 21:53:54
(UTC+00:00)

Tiangong - Visible Passes

Search period start: 28 November 2022 00:00
Search period end: 08 December 2022 00:00
Orbit: 386 x 393 km, 41.5° (Epoch: 28 November)

Date Brightness Start Highest point End Pass type
(mag) Time Alt. Az. Time Alt. Az. Time Alt. Az.
29 Nov 1.1 02:39:30 10° SW 02:39:37 11° SW 02:39:37 11° SW visible
30 Nov -0.1 01:42:06 10° SSW 01:44:16 17° SSE 01:44:25 17° SSE visible
01 Dec 0.5 00:45:21 10° SSE 00:46:23 11° SSE 00:47:24 10° SE visible
01 Dec 0.0 02:19:48 10° SW 02:21:26 24° SSW 02:21:26 24° SSW visible
02 Dec -0.6 01:22:01 10° SW 01:24:44 26° SSE 01:26:05 19° ESE visible
02 Dec 1.4 02:58:14 10° WSW 02:58:23 11° WSW 02:58:23 11° WSW visible
03 Dec -1.3 02:00:11 10° WSW 02:02:59 44° S 02:02:59 44° S visible
04 Dec -1.0 01:02:09 10° SW 01:05:07 36° SSE 01:07:32 14° E visible
04 Dec 0.6 02:38:43 10° W 02:39:50 19° WSW 02:39:50 19° WSW visible
05 Dec -1.6 01:40:32 10° WSW 01:43:38 52° S 01:44:22 41° SE visible
06 Dec -1.3 00:42:21 10° WSW 00:45:25 47° S 00:48:31 10° E visible
06 Dec -0.4 02:19:05 10° W 02:21:11 33° WSW 02:21:11 33° WSW visible
07 Dec -1.5 01:20:48 10° W 01:23:55 52° S 01:25:43 22° ESE visible
07 Dec 1.4 02:57:48 10° W 02:58:02 11° WSW 02:58:02 11° WSW visible
